COSMOS 2251 DEB, 34554

Orbit data source: Space-Track

COSMOS 2251 DEB, 34554 is space debris in LEO originally from a launch on Wed, 16 Jun 1993 UTC launched from the Plesetsk Missile And Space Complex (PKMTR). The debris from Iridium 33, an American commercial communications satellite, has been tracked extensively since its accidental collision with the defunct Russian satellite Cosmos 2251 in 2009. This event, occurring at high speed in low Earth orbit (LEO), generated thousands of pieces of space debris, significantly increasing the risk of further collisions. The Iridium 33 debris cloud has impacted space traffic management and orbital debris mitigation strategies, making it a subject of ongoing study in space situational awareness.

Loading next visibility...
Identifier
34554, 1993-036UQ
Orbit
LEO
Country
Flag of CISCIS
Related business
Manufacturer
Unknown
Mission
Spacecraft
Bus & Motor
Unknown
Mass
Unknown
Launch date (UTC)
1993-06-16 (33 years ago)
Launch vehicle
Unknown
Launch site
Plesetsk Missile And Space Complex (PKMTR)
Object type
Payload
Rocket body
Debris
Shape & HBR
Unknown shape, 0.1 m
Radar Cross Section
Small (<0.1 m²)

Expand to show TLE details & history
Last TLE update: 14 hours ago

TLE from 14 hours ago
0 COSMOS 2251 DEB
1 34554U 93036UQ  26106.59229345  .00000421  00000-0  14684-3 0  9999
2 34554  74.0377  69.0474 0021898 107.3911  12.6800 14.38191930895504
Epoch: 2026-04-16T14:12Z
TLE epoch observation values (Epoch: 2026-04-16T14:12:54.154Z)
Latitude
56.36904°
Longitude
165.76156°
Altitude
758.279 km
Speed
7.489 km/s
True Right ascension
14h 54m 53s
True Declination
56° 12' 37"
Sunlit
Object was in daylight at epoch
Visualization orbit readout
Latitude
Unknown
Longitude
Unknown
Altitude
Unknown
Speed
Unknown
Apparent Right ascension
Unknown
Apparent Declination
Unknown
Sunlit
N/A
Visualization observer readout
Local Sidereal Time
10:43:15
Azimuth
Unknown
Elevation
Unknown
Doppler factor
Unknown
Orbital elements
Apogee altitude
777.736 km
Perigee altitude
746.464 km
Semi-major axis
7,140.237 km
Eccentricity
0.00219
Inclination
74.0377°
RAAN
69.0474°
Arg. of periapsis
107.3911°
True anomaly
12.73523°
Mean anomaly
12.68°
Eccentric anomaly
12.7076°
Mean motion
3.59728 °/min
Orbital period
100.08 mins
BSTAR
0.00014684
Loading maneuver chart data...
Computing Atmospheric mass density...

Documentation

Showing up to 5 results
|